Regional Weather Roundup
Issued by NWS

Home | Current Version | Previous Version | Graphics & Text | Print | Product List | Glossary On
Versions: 1 2 3 4 5 6 7 8 9 10 11 12 13 14 15 16 17 18 19 20 21 22 23 24 25 26 27 28 29 30 31 32 33 34 35 36 37 38 39 40 41 42 43 44 45 46 47 48 49 50
000
ASUS43 KBIS 050420
RWRND

NORTH DAKOTA REGIONAL WEATHER ROUNDUP
NATIONAL WEATHER SERVICE BISMARCK ND
1100 PM CDT MON MAY 04 2015

NOTE: "FAIR" INDICATES FEW OR NO CLOUDS BELOW 12,000 FEET WITH NO
SIGNIFICANT WEATHER AND/OR OBSTRUCTIONS TO VISIBILITY.


NDZ001>003-009>011-017-050500-
NORTHWEST NORTH DAKOTA

CITY           SKY/WX    TMP DP  RH WIND       PRES   REMARKS
WILLISTON      CLEAR     57  38  48 S9        30.05R
MINOT          MOCLDY    58  29  33 S9        30.09R
MINOT AFB      CLEAR     51  30  43 S12       30.08R
$$

NDZ018>021-031>035-040>046-050500-
SOUTHWEST NORTH DAKOTA

CITY           SKY/WX    TMP DP  RH WIND       PRES   REMARKS
BISMARCK       MOCLDY    49  30  48 SE6       30.13S
DICKINSON      CLEAR     46  32  58 SE14      30.07F
GARRISON         N/A     53  32  44 CALM      30.10S
HETTINGER ARPT CLOUDY    50  29  44 SE12      30.10F
$$

NDZ004>008-012>016-024-026-027-054-050500-
NORTHEAST NORTH DAKOTA

CITY           SKY/WX    TMP DP  RH WIND       PRES   REMARKS
GRAND FORKS    CLEAR     55  26  32 SE7       30.16S
GRND FRKS AFB  CLEAR     44  27  51 SE5       30.16S
DEVILS LAKE    CLEAR     52  37  58 S8        30.15S
$$

NDZ022-023-025-028>030-036>039-047>053-050500-
SOUTHEAST NORTH DAKOTA

CITY           SKY/WX    TMP DP  RH WIND       PRES   REMARKS
FARGO          CLEAR     50  24  36 SE3       30.18R
JAMESTOWN      CLEAR     52  25  35 SE9       30.16R
$$



USA.gov is the U.S. government's official web portal to all federal, state and local government web resources and services.